DW5057 Weather Reports


Display with metric or nautical units.
time (UTC)temp
F
wind
direction
speed
MPH
gust
MPH
rain 1hr
in
rain 24hr
in
rain mn
in
humidity
%
barometer
mb
20260831054517 76 0.0 0.0 0.00 0.00 0.00 87 1019.1
20260831053517 76 334 0.0 0.0 0.00 0.00 0.00 87 1019.1
20260831052517 77 182 0.0 1.0 0.00 0.00 0.00 87 1019.0
20260831051517 77 230 0.0 1.0 0.00 0.00 0.00 87 1019.0
20260831050518 77 215 0.0 1.0 0.00 0.00 0.00 87 1019.0
20260831045518 77 277 0.0 2.0 0.00 0.00 0.00 87 1019.0
20260831044519 76 252 0.0 1.0 0.00 0.00 0.00 87 1019.0
20260831043518 76 16 0.0 1.0 0.00 0.00 0.00 86 1019.0
20260831042518 76 273 0.0 0.0 0.00 0.00 0.00 86 1019.0
20260831041518 76 0.0 0.0 0.00 0.00 0.00 86 1019.1
20260831040516 76 305 0.0 1.0 0.00 0.00 0.00 86 1019.1
20260831035516 76 10 0.0 1.0 0.00 0.00 0.00 86 1019.2
20260831034516 76 323 0.0 1.0 0.00 0.00 0.00 87 1019.4
20260831033516 76 188 0.0 1.0 0.00 0.00 0.00 87 1019.3
20260831032516 77 240 0.0 0.0 0.00 0.00 0.00 86 1019.4
20260831031516 77 209 0.0 1.0 0.00 0.00 0.00 86 1019.5
20260831030517 77 331 0.0 1.0 0.00 0.00 0.00 86 1019.6
20260831025517 77 336 0.0 1.0 0.00 0.00 0.00 85 1019.6
20260831024517 77 353 0.0 1.0 0.00 0.00 0.00 85 1019.7
20260831023517 77 255 0.0 1.0 0.00 0.00 0.00 85 1019.8
20260831022518 77 321 0.0 1.0 0.00 0.00 0.00 85 1019.8
20260831021518 77 213 0.0 1.0 0.00 0.00 0.00 85 1019.8
20260831020518 77 170 0.0 2.0 0.00 0.00 0.00 85 1019.7
20260831015518 77 277 0.0 2.0 0.00 0.00 0.00 84 1019.8
20260831014518 77 199 0.0 2.0 0.00 0.00 0.00 84 1019.8
20260831013519 77 212 0.0 2.0 0.00 0.00 0.00 84 1020.0
20260831012519 78 233 0.0 2.0 0.00 0.00 0.00 83 1020.0
20260831011518 78 313 0.0 2.0 0.00 0.00 0.00 83 1020.0
20260831010515 78 221 0.0 2.0 0.00 0.00 0.00 83 1019.9
20260831005536 78 345 0.0 1.0 0.00 0.00 0.00 82 1020.0
20260831004537 78 277 0.0 2.0 0.00 0.00 0.00 83 1019.8
20260831003516 78 232 0.0 3.0 0.00 0.00 0.00 83 1019.7
20260831002516 78 236 0.0 3.0 0.00 0.00 0.00 83 1019.6
20260831001517 78 240 0.0 3.0 0.00 0.00 0.00 83 1019.6
20260831000517 78 246 1.0 3.0 0.00 0.00 0.00 83 1019.5
20260830235517 78 318 1.0 2.0 0.00 0.00 0.00 83 1019.5
20260830234517 78 240 1.0 4.0 0.00 0.00 0.00 83 1019.5
20260830233538 78 237 1.0 3.0 0.00 0.00 0.00 83 1019.5
20260830232518 78 209 1.0 3.0 0.00 0.00 0.00 82 1019.6
20260830231517 78 206 1.0 3.0 0.00 0.00 0.00 82 1019.7
20260830230518 78 233 1.0 5.0 0.00 0.00 0.00 82 1019.7
20260830225518 78 229 1.0 3.0 0.00 0.00 0.00 81 1019.7
20260830224518 78 229 1.0 3.0 0.00 0.00 0.00 81 1019.6
20260830223539 79 274 1.0 3.0 0.00 0.00 0.00 81 1019.6
20260830222518 79 207 1.0 4.0 0.00 0.00 0.00 80 1019.5
20260830221516 79 230 1.0 5.0 0.00 0.00 0.00 79 1019.4
20260830220515 79 213 1.0 3.0 0.00 0.00 0.00 79 1019.3
20260830215616 79 191 1.0 4.0 0.00 0.00 0.00 78 1019.2
20260830214516 80 202 1.0 3.0 0.00 0.00 0.00 78 1019.3
20260830213516 80 177 1.0 3.0 0.00 0.00 0.00 77 1019.3
20260830212516 80 205 1.0 4.0 0.00 0.00 0.00 76 1019.3
20260830211516 80 213 1.0 3.0 0.00 0.00 0.00 76 1019.3
20260830210517 80 184 1.0 4.0 0.00 0.00 0.00 76 1019.2
20260830205517 81 196 1.0 4.0 0.00 0.00 0.00 76 1019.3
20260830204538 81 190 1.0 4.0 0.00 0.00 0.00 75 1019.3
20260830203518 81 217 0.0 3.0 0.00 0.00 0.00 75 1019.5
20260830202517 81 203 1.0 4.0 0.00 0.00 0.00 75 1019.6
20260830201517 81 194 1.0 3.0 0.00 0.00 0.00 74 1019.7
20260830200517 81 227 1.0 5.0 0.00 0.00 0.00 74 1019.8
20260830195518 82 214 1.0 4.0 0.00 0.00 0.00 73 1019.9
20260830194519 82 190 1.0 4.0 0.00 0.00 0.00 72 1019.9
20260830193518 82 213 1.0 3.0 0.00 0.00 0.00 72 1020.0
20260830192516 83 225 1.0 3.0 0.00 0.00 0.00 71 1020.1
20260830191519 83 195 1.0 3.0 0.00 0.00 0.00 69 1020.3
20260830190516 85 200 1.0 4.0 0.00 0.00 0.00 67 1020.5
20260830185536 86 200 1.0 3.0 0.00 0.00 0.00 65 1020.6
20260830184536 86 211 1.0 4.0 0.00 0.00 0.00 64 1020.9
20260830183516 86 205 1.0 4.0 0.00 0.00 0.00 64 1021.1
20260830182516 86 214 1.0 4.0 0.00 0.00 0.00 64 1021.1
20260830181517 86 204 1.0 4.0 0.00 0.00 0.00 64 1021.2
20260830180517 86 212 1.0 4.0 0.00 0.00 0.00 63 1021.3
20260830175518 87 190 1.0 3.0 0.00 0.00 0.00 62 1021.5
20260830174517 87 167 0.0 4.0 0.00 0.00 0.00 60 1021.6
20260830173517 87 209 1.0 5.0 0.00 0.00 0.00 60 1021.7
20260830172518 88 202 1.0 4.0 0.00 0.00 0.00 60 1021.8
20260830171517 88 195 1.0 3.0 0.00 0.00 0.00 59 1021.9
20260830170516 88 209 1.0 3.0 0.00 0.00 0.00 59 1022.0
20260830165516 87 234 1.0 4.0 0.00 0.00 0.00 60 1021.9
20260830164517 88 211 1.0 5.0 0.00 0.00 0.00 58 1021.9
20260830163517 88 190 0.0 3.0 0.00 0.00 0.00 58 1022.1
20260830162517 87 246 1.0 2.0 0.00 0.00 0.00 59 1022.2
20260830161517 88 219 1.0 3.0 0.00 0.00 0.00 59 1022.2
20260830160518 88 233 1.0 4.0 0.00 0.00 0.00 58 1022.2
20260830155516 88 214 1.0 4.0 0.00 0.00 0.00 58 1022.3
20260830154516 88 195 1.0 4.0 0.00 0.00 0.00 58 1022.5
20260830153536 88 197 1.0 3.0 0.00 0.00 0.00 58 1022.6
20260830152517 89 218 1.0 3.0 0.00 0.00 0.00 56 1022.7
20260830151517 90 238 1.0 3.0 0.00 0.00 0.00 54 1022.6
20260830150517 90 218 1.0 5.0 0.00 0.00 0.00 54 1022.6
20260830145517 90 210 0.0 2.0 0.00 0.00 0.00 54 1022.6
20260830144537 89 282 0.0 1.0 0.00 0.00 0.00 55 1022.6
20260830143517 89 232 0.0 3.0 0.00 0.00 0.00 56 1022.6
20260830142537 88 195 0.0 2.0 0.00 0.00 0.00 56 1022.7
20260830141518 87 219 0.0 2.0 0.00 0.00 0.00 59 1022.8
20260830140518 86 220 0.0 2.0 0.00 0.00 0.00 60 1022.8
20260830135518 85 232 1.0 2.0 0.00 0.00 0.00 60 1023.0
20260830134518 84 199 0.0 3.0 0.00 0.00 0.00 62 1023.1
20260830133518 82 215 0.0 3.0 0.00 0.00 0.00 65 1023.3
20260830132518 81 201 1.0 3.0 0.00 0.00 0.00 67 1023.3
20260830131518 79 202 0.0 2.0 0.00 0.00 0.00 70 1023.3
20260830130520 78 183 0.0 0.0 0.00 0.00 0.00 72 1023.3
20260830125520 77 198 0.0 2.0 0.00 0.00 0.00 76 1023.4
20260830124521 76 186 0.0 1.0 0.00 0.00 0.00 78 1023.4
20260830123541 76 194 0.0 2.0 0.00 0.00 0.00 78 1023.5
20260830122521 75 188 1.0 2.0 0.00 0.00 0.00 80 1023.6
20260830121541 75 197 0.0 1.0 0.00 0.00 0.00 80 1023.6
20260830120521 75 202 0.0 2.0 0.00 0.00 0.00 80 1023.6
20260830115522 75 197 0.0 2.0 0.00 0.00 0.00 80 1023.6
20260830114522 74 195 0.0 1.0 0.00 0.00 0.00 81 1023.5
20260830113522 73 172 0.0 2.0 0.00 0.00 0.00 82 1023.5
20260830112522 73 220 0.0 1.0 0.00 0.00 0.00 83 1023.5
20260830111522 72 205 0.0 2.0 0.00 0.00 0.00 84 1023.5
20260830110522 71 0.0 0.0 0.00 0.00 0.00 86 1023.4
20260830105523 71 0.0 0.0 0.00 0.00 0.00 87 1023.4
20260830104523 70 0.0 0.0 0.00 0.00 0.00 88 1023.4
20260830103523 70 0.0 0.0 0.00 0.00 0.00 88 1023.4
20260830102523 70 0.0 0.0 0.00 0.00 0.00 87 1023.4
20260830101523 70 0.0 0.0 0.00 0.00 0.00 87 1023.4
20260830100524 70 0.0 0.0 0.00 0.00 0.00 87 1023.3
20260830095524 70 0.0 0.0 0.00 0.00 0.00 86 1023.2
20260830094524 70 0.0 0.0 0.00 0.00 0.00 86 1023.3
20260830093524 70 0.0 0.0 0.00 0.00 0.00 85 1023.2
20260830092536 70 0.0 0.0 0.00 0.00 0.00 84 1023.2
20260830091516 70 0.0 0.0 0.00 0.00 0.00 84 1023.2
20260830090517 71 0.0 0.0 0.00 0.00 0.00 84 1023.2
20260830085517 71 0.0 0.0 0.00 0.00 0.00 83 1023.3
20260830084517 71 73 0.0 0.0 0.00 0.00 0.00 83 1023.3
20260830083518 71 0.0 0.0 0.00 0.00 0.00 82 1023.3
20260830082518 72 0.0 0.0 0.00 0.00 0.00 81 1023.4
20260830081518 72 0.0 0.0 0.00 0.00 0.00 79 1023.3
20260830080518 72 307 0.0 1.0 0.00 0.00 0.00 79 1023.1
20260830075518 72 0.0 0.0 0.00 0.00 0.00 78 1023.1
20260830074518 72 0.0 0.0 0.00 0.00 0.00 78 1023.0
20260830073518 72 0.0 0.0 0.00 0.00 0.00 78 1023.2
20260830072518 72 0.0 0.0 0.00 0.00 0.00 77 1023.2
20260830071519 71 217 0.0 1.0 0.00 0.00 0.00 77 1023.4
20260830070516 71 245 0.0 1.0 0.00 0.00 0.00 77 1023.4
20260830065516 71 199 0.0 2.0 0.00 0.00 0.00 77 1023.4
20260830064516 71 0.0 0.0 0.00 0.00 0.00 78 1023.5
20260830063516 71 0.0 0.0 0.00 0.00 0.00 78 1023.5
20260830062536 71 0.0 0.0 0.00 0.00 0.00 79 1023.6
20260830061516 70 0.0 0.0 0.00 0.00 0.00 80 1023.7
20260830060516 70 0.0 0.0 0.00 0.00 0.00 82 1023.7
20260830055517 70 193 0.0 1.0 0.00 0.00 0.00 84 1023.8